Time,TemperatureF,DewpointF,PressureIn,WindDirection,WindDirectionDegrees,WindSpeedMPH,WindSpeedGustMPH,Humidity,HourlyPrecipIn,Conditions,Clouds,dailyrainin,SoftwareType,DateUTC
2013-07-06 00:11:00,78.4,74.0,30.16,WSW,239,0.0,3.0,87,0.00,,,0.00,weatherlink.com 1.10,2013-07-06 04:11:00,
2013-07-06 00:26:00,78.0,74.0,30.16,SW,232,0.0,2.0,87,0.00,,,0.00,weatherlink.com 1.10,2013-07-06 04:26:00,
2013-07-06 00:41:00,77.8,74.0,30.16,WSW,243,1.0,3.0,88,0.00,,,0.00,weatherlink.com 1.10,2013-07-06 04:41:00,
2013-07-06 00:56:00,77.6,74.0,30.16,SW,220,1.0,2.0,89,0.00,,,0.00,weatherlink.com 1.10,2013-07-06 04:56:00,
2013-07-06 01:11:00,77.3,74.0,30.16,SW,221,2.0,2.0,90,0.00,,,0.00,weatherlink.com 1.10,2013-07-06 05:11:00,
2013-07-06 01:26:00,77.1,74.0,30.16,WSW,243,0.0,0.0,90,0.00,,,0.00,weatherlink.com 1.10,2013-07-06 05:26:00,
2013-07-06 01:41:00,76.8,74.0,30.16,WSW,250,0.0,1.0,91,0.00,,,0.00,weatherlink.com 1.10,2013-07-06 05:41:00,
2013-07-06 01:56:00,76.6,74.0,30.15,WSW,252,1.0,3.0,91,0.00,,,0.00,weatherlink.com 1.10,2013-07-06 05:56:00,
2013-07-06 02:11:00,76.8,74.0,30.15,SW,233,0.0,4.0,91,0.00,,,0.00,weatherlink.com 1.10,2013-07-06 06:11:00,
2013-07-06 02:26:00,76.9,74.0,30.14,WSW,239,0.0,3.0,91,0.00,,,0.00,weatherlink.com 1.10,2013-07-06 06:26:00,
2013-07-06 02:42:00,76.9,74.0,30.15,WSW,250,0.0,3.0,91,0.00,,,0.00,weatherlink.com 1.10,2013-07-06 06:42:00,
2013-07-06 02:57:00,76.8,74.0,30.15,WSW,238,0.0,4.0,91,0.00,,,0.00,weatherlink.com 1.10,2013-07-06 06:57:00,
2013-07-06 03:12:00,76.4,74.0,30.15,WSW,239,0.0,2.0,92,0.00,,,0.00,weatherlink.com 1.10,2013-07-06 07:12:00,
2013-07-06 03:27:00,76.3,74.0,30.15,SW,221,0.0,2.0,92,0.00,,,0.00,weatherlink.com 1.10,2013-07-06 07:27:00,
2013-07-06 03:42:00,76.4,74.0,30.15,SW,227,0.0,4.0,92,0.00,,,0.00,weatherlink.com 1.10,2013-07-06 07:42:00,
2013-07-06 03:57:00,76.4,74.0,30.15,WSW,242,0.0,3.0,92,0.00,,,0.00,weatherlink.com 1.10,2013-07-06 07:57:00,
2013-07-06 04:12:00,76.2,74.0,30.15,WSW,248,0.0,2.0,92,0.00,,,0.00,weatherlink.com 1.10,2013-07-06 08:12:00,
2013-07-06 04:27:00,76.0,74.0,30.15,WSW,238,0.0,3.0,92,0.00,,,0.00,weatherlink.com 1.10,2013-07-06 08:27:00,
2013-07-06 04:42:00,75.9,74.0,30.15,WSW,238,0.0,4.0,93,0.00,,,0.00,weatherlink.com 1.10,2013-07-06 08:42:00,
2013-07-06 04:57:00,76.1,74.0,30.15,SW,226,2.0,3.0,92,0.00,,,0.00,weatherlink.com 1.10,2013-07-06 08:57:00,
2013-07-06 05:12:00,76.1,74.0,30.14,West,267,1.0,3.0,92,0.00,,,0.00,weatherlink.com 1.10,2013-07-06 09:12:00,
2013-07-06 05:27:00,76.1,74.0,30.14,SW,222,0.0,3.0,92,0.00,,,0.00,weatherlink.com 1.10,2013-07-06 09:27:00,
2013-07-06 05:42:00,76.2,74.0,30.15,WSW,246,4.0,4.0,92,0.00,,,0.00,weatherlink.com 1.10,2013-07-06 09:42:00,
2013-07-06 05:57:00,76.3,74.0,30.15,West,264,2.0,6.0,92,0.00,,,0.00,weatherlink.com 1.10,2013-07-06 09:57:00,
2013-07-06 06:12:00,76.3,74.0,30.15,SW,227,2.0,5.0,92,0.00,,,0.00,weatherlink.com 1.10,2013-07-06 10:12:00,
2013-07-06 06:27:00,76.5,74.0,30.16,WSW,242,2.0,4.0,92,0.00,,,0.00,weatherlink.com 1.10,2013-07-06 10:27:00,
2013-07-06 06:42:00,76.7,74.0,30.16,West,270,1.0,6.0,91,0.00,,,0.00,weatherlink.com 1.10,2013-07-06 10:42:00,
2013-07-06 06:57:00,77.0,74.0,30.16,WSW,253,2.0,7.0,91,0.00,,,0.00,weatherlink.com 1.10,2013-07-06 10:57:00,
2013-07-06 07:12:00,77.4,75.0,30.16,WNW,283,2.0,5.0,91,0.00,,,0.00,weatherlink.com 1.10,2013-07-06 11:12:00,
2013-07-06 07:27:00,78.2,75.0,30.16,SW,226,2.0,4.0,89,0.00,,,0.00,weatherlink.com 1.10,2013-07-06 11:27:00,
2013-07-06 07:42:00,78.8,75.0,30.16,SW,233,1.0,5.0,88,0.00,,,0.00,weatherlink.com 1.10,2013-07-06 11:42:00,
2013-07-06 07:57:00,80.1,76.0,30.17,SW,218,0.0,5.0,86,0.00,,,0.00,weatherlink.com 1.10,2013-07-06 11:57:00,
2013-07-06 08:12:00,81.6,76.0,30.17,SSE,156,0.0,4.0,83,0.00,,,0.00,weatherlink.com 1.10,2013-07-06 12:12:00,
2013-07-06 08:27:00,82.3,76.0,30.17,SW,222,3.0,8.0,81,0.00,,,0.00,weatherlink.com 1.10,2013-07-06 12:27:00,
2013-07-06 08:42:00,83.3,77.0,30.17,WSW,245,0.0,4.0,80,0.00,,,0.00,weatherlink.com 1.10,2013-07-06 12:42:00,
2013-07-06 08:57:00,84.0,77.0,30.17,WSW,246,0.0,5.0,78,0.00,,,0.00,weatherlink.com 1.10,2013-07-06 12:57:00,
2013-07-06 09:12:00,84.6,77.0,30.16,SSW,205,2.0,5.0,77,0.00,,,0.00,weatherlink.com 1.10,2013-07-06 13:12:00,
2013-07-06 09:27:00,85.2,77.0,30.16,SW,215,4.0,9.0,77,0.00,,,0.00,weatherlink.com 1.10,2013-07-06 13:27:00,
2013-07-06 09:42:00,85.3,76.0,30.17,WSW,239,2.0,7.0,74,0.00,,,0.00,weatherlink.com 1.10,2013-07-06 13:42:00,
2013-07-06 09:57:00,86.5,78.0,30.16,WSW,249,1.0,6.0,75,0.00,,,0.00,weatherlink.com 1.10,2013-07-06 13:57:00,
2013-07-06 10:12:00,87.5,78.0,30.16,West,274,5.0,5.0,74,0.00,,,0.00,weatherlink.com 1.10,2013-07-06 14:12:00,
2013-07-06 10:27:00,88.4,78.0,30.16,SSE,163,0.0,3.0,71,0.00,,,0.00,weatherlink.com 1.10,2013-07-06 14:27:00,
2013-07-06 10:42:00,88.8,77.0,30.16,WSW,246,0.0,5.0,68,0.00,,,0.00,weatherlink.com 1.10,2013-07-06 14:42:00,
2013-07-06 10:57:00,89.0,77.0,30.16,SW,233,2.0,5.0,67,0.00,,,0.00,weatherlink.com 1.10,2013-07-06 14:57:00,
2013-07-06 11:12:00,89.3,77.0,30.16,SW,228,3.0,4.0,67,0.00,,,0.00,weatherlink.com 1.10,2013-07-06 15:12:00,
2013-07-06 11:28:00,90.2,78.0,30.16,SW,224,4.0,5.0,67,0.00,,,0.00,weatherlink.com 1.10,2013-07-06 15:28:00,
2013-07-06 11:43:00,90.1,78.0,30.15,WSW,238,3.0,5.0,67,0.00,,,0.00,weatherlink.com 1.10,2013-07-06 15:43:00,
2013-07-06 11:58:00,90.6,77.0,30.15,West,278,2.0,5.0,65,0.00,,,0.00,weatherlink.com 1.10,2013-07-06 15:58:00,
2013-07-06 12:13:00,91.3,76.0,30.15,South,174,1.0,6.0,62,0.00,,,0.00,weatherlink.com 1.10,2013-07-06 16:13:00,
2013-07-06 13:13:00,92.0,77.0,30.13,WSW,242,2.0,6.0,61,0.00,,,0.00,weatherlink.com 1.10,2013-07-06 17:13:00,
2013-07-06 13:28:00,92.3,76.0,30.13,SW,225,0.0,6.0,59,0.00,,,0.00,weatherlink.com 1.10,2013-07-06 17:28:00,
2013-07-06 13:43:00,91.5,77.0,30.12,WSW,246,2.0,7.0,63,0.00,,,0.00,weatherlink.com 1.10,2013-07-06 17:43:00,
2013-07-06 14:28:00,91.6,78.0,30.11,WSW,256,1.0,6.0,65,0.00,,,0.00,weatherlink.com 1.10,2013-07-06 18:28:00,
2013-07-06 15:43:00,92.2,77.0,30.10,ESE,110,2.0,6.0,61,0.00,,,0.00,weatherlink.com 1.10,2013-07-06 19:43:00,
2013-07-06 15:58:00,92.0,76.0,30.09,East,86,1.0,5.0,60,0.00,,,0.00,weatherlink.com 1.10,2013-07-06 19:58:00,
2013-07-06 16:13:00,91.5,76.0,30.09,West,266,3.0,7.0,61,0.00,,,0.00,weatherlink.com 1.10,2013-07-06 20:13:00,
2013-07-06 16:29:00,92.7,77.0,30.08,ENE,77,0.0,6.0,61,0.00,,,0.00,weatherlink.com 1.10,2013-07-06 20:29:00,
2013-07-06 16:59:00,92.4,77.0,30.07,SE,129,0.0,6.0,61,0.00,,,0.00,weatherlink.com 1.10,2013-07-06 20:59:00,
2013-07-06 17:28:00,91.9,77.0,30.07,South,174,0.0,6.0,61,0.00,,,0.00,weatherlink.com 1.10,2013-07-06 21:28:00,
2013-07-06 17:58:00,91.3,76.0,30.06,West,259,2.0,5.0,61,0.00,,,0.00,weatherlink.com 1.10,2013-07-06 21:58:00,
2013-07-06 18:13:00,90.6,76.0,30.06,SW,223,4.0,7.0,62,0.00,,,0.00,weatherlink.com 1.10,2013-07-06 22:13:00,
2013-07-06 18:28:00,89.1,75.0,30.06,WSW,255,2.0,6.0,64,0.00,,,0.00,weatherlink.com 1.10,2013-07-06 22:28:00,
2013-07-06 18:43:00,88.2,75.0,30.06,SW,232,1.0,5.0,65,0.00,,,0.00,weatherlink.com 1.10,2013-07-06 22:43:00,
2013-07-06 18:58:00,87.6,75.0,30.06,West,280,1.0,3.0,66,0.00,,,0.00,weatherlink.com 1.10,2013-07-06 22:58:00,
2013-07-06 19:13:00,87.0,75.0,30.06,WSW,240,0.0,2.0,68,0.00,,,0.00,weatherlink.com 1.10,2013-07-06 23:13:00,
2013-07-06 19:58:00,85.3,75.0,30.06,SW,235,0.0,3.0,71,0.00,,,0.00,weatherlink.com 1.10,2013-07-06 23:58:00,
2013-07-06 20:28:00,83.2,75.0,30.07,WSW,253,0.0,1.0,76,0.00,,,0.00,weatherlink.com 1.10,2013-07-07 00:28:00,
2013-07-06 20:43:00,82.0,75.0,30.07,WSW,246,0.0,0.0,80,0.00,,,0.00,weatherlink.com 1.10,2013-07-07 00:43:00,
2013-07-06 22:14:00,77.4,74.0,30.09,West,266,0.0,0.0,88,0.00,,,0.00,weatherlink.com 1.10,2013-07-07 02:14:00,
2013-07-06 22:29:00,77.0,73.0,30.10,West,266,0.0,0.0,88,0.00,,,0.00,weatherlink.com 1.10,2013-07-07 02:29:00,
2013-07-06 22:59:00,77.0,73.0,30.10,West,266,0.0,0.0,88,0.00,,,0.00,weatherlink.com 1.10,2013-07-07 02:59:00,
2013-07-06 23:29:00,77.7,73.0,30.10,WSW,258,0.0,1.0,86,0.00,,,0.00,weatherlink.com 1.10,2013-07-07 03:29:00,
2013-07-06 23:44:00,77.2,73.0,30.10,WNW,291,0.0,1.0,87,0.00,,,0.00,weatherlink.com 1.10,2013-07-07 03:44:00,
2013-07-06 23:59:00,76.7,73.0,30.10,West,262,0.0,1.0,88,0.00,,,0.00,weatherlink.com 1.10,2013-07-07 03:59:00,